IRIDIUM 39 [P]

Last updated on Wed May 30 2018 00:19:59 GMT+0000 (Coordinated Universal Time)

1 25042U 97069D 18149.59363081 .00000133 00000-0 31484-4 0 9993 2 25042 86.3958 231.3891 0017065 236.7673 123.1894 14.46240822 76525
UTC large
Height (km)
Speed (km/s)
/
Latitude / Longitude
Inclination (degrees)
Orbital Period (minutes)
Azimuth
Elevation
Range (km)
Doppler Factor

Next 0 passes for location: London (51.5072 / 0.1276)

Sorry there are no passes over London.
IRIDIUM 39 [P]